DateTimeUTC,F1_A11,F1_S11,BsB_S11,BsG_S11,BsR_S11,BbsB_S11,BbsG_S11,BbsR_S11,BaB_A11,BaG_A11,BaR_A11,Tu_S11,T_S11,Uu_S11,U_S11,P_S11,T1_A11
2021-09-06T07:00:00Z,00000200,21000000,,,,,,,0000.10,0000.15,-000.23,18.0,25.0,,00.0,0659.0,31.0
2021-09-06T07:01:00Z,00000200,21000000,,,,,,,-000.56,0000.15,0000.20,18.0,25.0,,00.0,0659.0,31.0
2021-09-06T07:02:00Z,00000200,21000000,,,,,,,0000.01,-000.05,-000.12,18.1,25.0,,00.0,0659.1,31.0
2021-09-06T07:03:00Z,00000200,61000000,,,,,,,-000.09,-000.00,0000.00,18.1,25.1,,00.0,0659.1,31.0
2021-09-06T07:04:00Z,00000200,41000000,0000.36,0000.49,-000.16,-000.25,-000.14,-000.00,-000.04,-000.26,-000.20,18.5,25.0,,00.0,0660.0,31.0
2021-09-06T07:05:00Z,00000200,01000000,-000.08,0000.38,-000.17,0000.41,0000.02,-000.01,-000.10,-000.21,0000.25,18.5,24.9,,00.0,0660.0,31.0
2021-09-06T07:06:00Z,00000200,01000000,-000.01,0000.01,0000.02,0000.49,0000.29,0000.21,-000.13,-000.05,-000.16,18.4,24.9,,00.0,0660.0,31.0
2021-09-06T07:07:00Z,00000200,01000000,-000.16,-000.07,0000.14,0000.53,-000.01,0000.02,-000.11,-000.37,-000.34,18.3,24.8,,00.0,0660.0,31.0
2021-09-06T07:08:00Z,00000200,01000000,-000.34,0000.24,-000.23,-000.34,-000.08,-000.08,0000.29,0000.23,0000.10,18.3,24.8,,00.0,0660.0,31.0
2021-09-06T07:09:00Z,00000200,01000000,0000.33,0000.56,0000.01,0000.26,0000.15,0000.19,-000.07,-000.17,-000.05,18.2,24.8,,00.0,0660.0,31.0
2021-09-06T07:10:00Z,00000200,01000000,-000.14,-000.07,0000.17,-000.17,0000.02,0000.24,-000.04,0000.42,0000.05,18.2,24.7,,00.0,0659.9,31.0
2021-09-06T07:11:00Z,00000200,01000000,0000.20,0000.03,0000.05,0000.39,0000.20,0000.39,0000.20,-000.20,0000.22,18.1,24.7,,00.0,0659.9,31.0
2021-09-06T07:12:00Z,00000200,01000000,0000.62,-000.11,-000.02,0000.71,0000.01,-000.14,0000.26,0000.35,0000.22,18.2,24.7,,00.0,0659.9,31.0
2021-09-06T07:13:00Z,00000200,01000000,0000.22,0000.16,-000.19,0000.13,0000.03,-000.18,-000.10,0000.02,-000.02,18.2,24.7,,00.0,0659.9,31.0
2021-09-06T07:14:00Z,00000200,01000000,-000.34,0000.04,-000.11,0000.60,0000.07,0000.04,0000.24,-000.20,0000.08,18.3,24.7,,00.0,0660.0,31.0
2021-09-06T07:15:00Z,00000200,01000000,-000.49,-000.16,0000.01,0000.44,0000.18,0000.23,-000.19,0000.21,0000.03,18.4,24.8,,00.0,0660.0,31.0
2021-09-06T07:16:00Z,00000200,01000000,-000.03,0000.27,-000.08,0000.47,-000.08,-000.02,-000.08,0000.28,-000.06,18.5,24.8,,00.0,0660.0,31.0
2021-09-06T07:17:00Z,00000200,01000000,-000.51,0000.26,-000.17,0000.49,-000.25,-000.35,0000.64,-000.05,0000.11,18.6,24.9,,00.0,0660.0,31.0
2021-09-06T07:18:00Z,00000200,01000000,0000.29,-000.18,-000.05,0000.42,0000.18,-000.23,-000.33,0000.20,-000.10,18.7,24.9,,00.0,0660.0,31.0
2021-09-06T07:19:00Z,00000200,01000000,0000.80,0000.42,0000.22,0000.60,0000.16,0000.11,-000.12,-000.30,-000.12,18.7,24.9,,00.0,0659.9,31.0
2021-09-06T07:20:00Z,00000200,01000000,0000.25,0000.16,-000.33,-000.59,0000.27,-000.09,-000.05,0000.00,0000.16,18.7,24.9,00.0,00.0,0659.9,31.0
2021-09-06T07:21:00Z,00000200,01000000,0000.34,-000.31,0000.10,-000.10,-000.12,0000.40,0000.08,0000.06,-000.07,18.6,24.9,,00.0,0659.9,31.0
2021-09-06T07:22:00Z,00000200,01000000,-000.13,0000.13,-000.38,0000.40,0000.02,-000.07,0000.39,0000.20,0000.01,18.5,24.9,,00.0,0659.9,31.0
2021-09-06T07:23:00Z,00000200,01000000,-000.07,0000.03,-000.25,0000.84,0000.27,-000.10,-000.28,-000.04,0000.17,18.5,24.8,,00.0,0659.9,31.0
2021-09-06T07:24:00Z,00000200,01000000,0000.83,0000.14,0000.06,0000.47,0000.29,0000.24,0000.23,-000.07,-000.13,18.4,24.8,,00.0,0659.9,31.0
2021-09-06T07:25:00Z,00000200,01000000,0000.09,0000.16,0000.14,0000.63,0000.16,0000.51,0000.15,0000.19,0000.02,18.3,24.8,,00.0,0659.9,31.0
2021-09-06T07:26:00Z,00000200,01000000,-000.73,-000.34,-000.20,0000.21,-000.04,-000.14,-000.32,-000.51,0000.23,18.3,24.7,,00.0,0659.9,31.0
2021-09-06T07:27:00Z,00000200,01000000,0000.16,-000.11,-000.30,0000.31,0000.27,-000.04,0000.25,0000.48,-000.09,18.3,24.7,,00.0,0659.9,31.0
2021-09-06T07:28:00Z,00000200,01000000,0000.71,-000.03,0000.21,0001.19,0000.30,0000.09,-000.12,0000.35,0000.43,18.4,24.7,,00.0,0659.9,31.0
2021-09-06T07:29:00Z,00000200,01000000,-000.57,-000.10,-000.14,0000.22,0000.06,-000.04,0000.22,-000.10,-000.10,18.5,24.8,,00.0,0659.9,31.0
2021-09-06T07:30:00Z,00000200,01000000,-000.09,0000.10,-000.36,-000.25,0000.16,0000.16,0000.54,0000.44,0000.21,18.6,24.8,,00.0,0659.9,31.0
2021-09-06T07:31:00Z,00000200,01000000,0000.86,0000.03,-000.01,0000.67,0000.23,0000.10,-000.38,0000.10,-000.26,18.7,24.9,,00.0,0659.9,31.0
2021-09-06T07:32:00Z,00000200,01000000,-000.47,0000.05,-000.28,0000.28,0000.32,-000.06,-000.09,-000.24,-000.05,18.8,24.9,,00.0,0659.9,31.0
2021-09-06T07:33:00Z,00000200,01000000,0000.28,0000.14,-000.42,-000.15,0000.05,-000.06,0000.04,-000.11,-000.05,18.8,25.0,,00.0,0659.9,31.0
2021-09-06T07:34:00Z,00000200,01000000,0000.43,0000.11,0000.08,0000.46,0000.11,0000.14,0000.13,0000.21,-000.08,18.8,25.0,00.0,00.0,0659.9,31.0
2021-09-06T07:35:00Z,00000200,01000000,-000.21,0000.20,0000.16,0000.30,0000.30,0000.12,-000.25,-000.21,-000.09,18.8,25.0,,00.0,0659.9,31.0
2021-09-06T07:36:00Z,00000200,01000000,0000.07,0000.02,-000.03,0000.87,0000.16,-000.12,0000.26,0000.17,0000.27,18.7,24.9,,00.0,0659.9,31.0
2021-09-06T07:37:00Z,00000200,01000000,-000.37,0000.02,-000.01,0000.87,0000.17,0000.25,0000.15,-000.19,0000.05,18.6,24.9,,00.0,0659.9,31.0
2021-09-06T07:38:00Z,00000200,01000000,-000.48,-000.36,0000.19,0000.25,0000.27,0000.09,0000.57,0000.60,0000.41,18.5,24.9,,00.0,0659.9,31.0
2021-09-06T07:39:00Z,00000200,01000000,0000.56,0000.38,0000.29,-000.08,0000.02,0000.14,-001.04,-000.54,-000.69,18.5,24.8,00.0,00.0,0659.9,31.0
2021-09-06T07:40:00Z,00000200,01000000,-000.02,-000.28,-000.04,0000.37,-000.07,0000.13,-000.04,-000.39,-000.23,18.4,24.8,,00.0,0659.9,31.0
2021-09-06T07:41:00Z,00000200,01000000,-000.82,-000.06,-000.12,0000.36,-000.28,-000.11,0000.01,0000.28,0000.16,18.4,24.8,,00.0,0659.9,31.0
2021-09-06T07:42:00Z,00000200,01000000,-000.47,0000.22,-000.14,0000.35,0000.09,0000.12,0000.01,-000.25,0000.05,18.4,24.8,,00.0,0659.9,31.0
2021-09-06T07:43:00Z,00000200,01000000,0000.08,-000.01,0000.03,0000.30,-000.06,-000.01,0000.13,-000.04,-000.13,18.4,24.8,,00.0,0659.9,31.0
2021-09-06T07:44:00Z,00000200,01000000,0000.11,0000.24,-000.11,0000.83,0000.00,-000.07,0000.05,0000.52,0000.31,18.5,24.8,,00.0,0659.9,31.0
2021-09-06T07:45:00Z,00000200,01000000,0000.01,-000.22,-000.19,0000.24,-000.01,-000.10,0000.06,-000.10,-000.08,18.6,24.9,,00.0,0659.9,31.0
2021-09-06T07:46:00Z,00000200,01000000,-000.47,0000.00,-000.15,-000.05,-000.16,0000.28,-000.02,-000.08,0000.09,18.7,24.9,,00.0,0659.9,31.0
2021-09-06T07:47:00Z,00000200,01000000,-000.45,-000.20,0000.06,0000.59,0000.56,-000.03,-000.03,-000.28,-000.02,18.8,25.0,,00.0,0659.9,31.0
2021-09-06T07:48:00Z,00000200,01000000,0000.29,0000.15,0000.00,0000.17,-000.05,0000.09,-000.28,0000.10,-000.28,18.8,25.0,,00.0,0659.9,31.0
2021-09-06T07:49:00Z,00000200,01000000,0000.75,0000.08,0000.22,-000.14,-000.07,-000.02,0000.07,0000.04,0000.12,18.8,25.0,,00.0,0659.9,31.0
2021-09-06T07:50:00Z,00000200,01000000,0000.46,-000.28,0000.19,0000.09,0000.19,-000.29,-000.13,-000.00,0000.07,18.7,25.0,,00.0,0659.9,31.0
2021-09-06T07:51:00Z,00000200,01000000,-000.10,-000.01,0000.08,-000.59,-000.10,0000.24,-000.04,-000.03,-000.36,18.7,24.9,,00.0,0659.9,31.0
2021-09-06T07:52:00Z,00000200,01000000,0000.11,-000.33,0000.08,0000.07,-000.19,0000.17,0000.24,0000.06,0000.20,18.6,24.9,,00.0,0660.0,31.0
2021-09-06T07:53:00Z,00000200,01000000,-000.64,-000.12,-000.14,0000.00,0000.21,-000.25,0000.25,0000.07,0000.01,18.6,24.9,,00.0,0659.9,31.0
2021-09-06T07:54:00Z,00000200,01000000,-000.19,0000.33,0000.29,0000.01,0000.32,-000.30,-000.32,-000.15,0000.03,18.5,24.8,,00.0,0659.9,31.0
2021-09-06T07:55:00Z,00000200,01000000,0000.21,0000.15,-000.05,0000.19,0000.01,-000.35,0000.32,0000.06,-000.12,18.4,24.8,,00.0,0659.9,31.0
2021-09-06T07:56:00Z,00000200,01000000,0000.06,0000.24,-000.25,0000.56,0000.18,-000.29,-000.18,-000.05,0000.37,18.4,24.8,,00.0,0659.9,31.0
2021-09-06T07:57:00Z,00000200,41000000,,,,,,,0000.22,0000.49,0000.09,18.4,24.8,,00.0,0659.9,31.0
2021-09-06T07:58:00Z,00000200,61000000,,,,,,,0000.03,-000.16,-000.09,18.1,24.9,,00.0,0658.9,31.0
2021-09-06T07:59:00Z,00000200,21000000,,,,,,,0000.03,0000.21,0000.03,18.1,25.0,,00.0,0658.9,31.0
